Skip Page Navigation
NASA JPL Caltech
NASA Logo - Jet Propulsion Laboratory + View the NASA Portal
+ Center for Near-Earth Object Studies
JPL Home Earth Solar System Stars & Galaxies Technology
JPL Solar System Dynamics
BODIES ORBITS EPHEMERIDES TOOLS PHYSICAL DATA DISCOVERY FAQ SITE MAP
IMPORTANT: The SSD Announcement email list is now available. Major changes are coming in the near future, including possible hostname and/or URL changes. To be notified of such changes, subscribe to this email list.

Please visit this page for more details.


JPL Small-Body Database Browser
Search: [ help ]  
243562 (1995 BA8)
Classification: Main-belt Asteroid          SPK-ID: 2243562
Ephemeris | Orbit Diagram | Orbital Elements | Mission Design | Physical Parameters | Discovery Circumstances | Close-Approach Data ]

[ show orbit diagram ]
Orbital Elements at Epoch 2458600.5 (2019-Apr-27.0) TDB
Reference: JPL 10 (heliocentric ecliptic J2000)
 Element Value Uncertainty (1-sigma)   Units 
e .06487879414295053 1.034e-07  
a 2.987525837598265 3.4381e-08 au
q 2.793698763783981 3.0855e-07 au
i 6.957735501449207 9.6332e-06 deg
node 118.5413422100291 8.8588e-05 deg
peri 106.6040081355551 0.00012813 deg
M 165.2676359583392 9.4742e-05 deg
tp 2457734.632884740747
(2016-Dec-12.13288474)
0.00049541 TDB
period 1886.10528423065
5.16
3.2558e-05
8.914e-08
d
yr
n .1908695145546159 3.2948e-09 deg/d
Q 3.181352911412549 3.6611e-08 au
  Orbit Determination Parameters
   # obs. used (total)      142  
   data-arc span      8630 days (23.63 yr)  
   first obs. used      1995-01-29  
   last obs. used      2018-09-15  
   planetary ephem.      DE431  
   SB-pert. ephem.      SB431-N16  
   condition code      0  
   norm. resid. RMS      .48846  
   source      ORB  
   producer      Otto Matic  
   solution date      2018-Oct-04 09:33:32  

Additional Information
 Earth MOID = 1.79413 au 
 Jupiter MOID = 1.83495 au 
 T_jup = 3.243 
[ show covariance matrix ]

Ephemeris | Orbit Diagram | Orbital Elements | Mission Design | Physical Parameters | Discovery Circumstances | Close-Approach Data ]

Physical Parameter Table
Parameter Symbol Value Units Sigma Reference Notes
absolute magnitude H 16.0   n/a MPO454787  
diameter diameter 4.883 km 1.501 urn:nasa:pds:neowise_diameters_albedos::2.0[mainbelt] (http://adsabs.harvard.edu/abs/2011ApJ...741...68M)  
geometric albedo albedo 0.027   0.019 urn:nasa:pds:neowise_diameters_albedos::2.0[mainbelt] (http://adsabs.harvard.edu/abs/2011ApJ...741...68M)  

243562 (1995 BA8)          Discovered 1995-Jan-29 by Spacewatch at Kitt Peak
Reference: 20100726/Numbers.arcLast Updated: 2010-07-28

[ show close-approach data ]
Alternate Designations
 1995 BA8 = 2000 CF138 
Ephemeris | Orbit Diagram | Orbital Elements | Mission Design | Physical Parameters | Discovery Circumstances | Close-Approach Data ]
ABOUT SSD CREDITS/AWARDS PRIVACY/COPYRIGHT GLOSSARY LINKS
FirstGov 2019-Dec-16 13:28 UT
(server date/time)  
NASA Home Page
Site Manager:   Ryan S. Park
Webmaster  Alan B. Chamberlin